Wind_Speed
32 30 29 28 28 27 29 30 30 32 36 37 34 35 36 37 37 36 38 40 39 31 28 31 35 40 44 42 42 47 53 53 54 55 57 60 64 68 68 71 74 69 62 61
31 29 26 29 29 29 30 31 32 35 37 34 35 36 38 38 34 36 39 40 36 29 33 38 37 38 43 42 44 52 58 56 55 57 60 64 67 69 70 74 73 65 63 65
28 24 29 31 30 31 32 34 35 34 32 32 36 39 36 35 38 41 39 37 33 33 38 38 38 40 43 46 50 55 60 58 59 60 64 67 70 73 77 72 65 62 64 66
28 28 29 29 29 30 31 31 29 30 32 32 37 40 32 30 34 38 38 36 38 37 38 38 42 44 46 49 53 59 58 60 61 62 66 70 75 77 71 66 63 64 65 68
25 25 27 28 27 29 24 24 28 30 31 33 33 36 32 32 34 32 36 38 40 37 37 40 43 45 47 51 55 57 62 63 63 66 70 73 77 80 65 65 65 67 69 70
18 21 23 25 22 19 22 24 26 29 29 30 24 29 32 32 32 33 37 39 34 34 36 39 41 43 48 53 56 62 64 64 66 68 72 75 80 69 62 63 65 69 70 73
17 17 16 21 21 18 20 23 26 28 27 28 26 30 30 30 31 34 38 36 34 33 33 37 39 47 51 57 59 62 63 66 68 70 75 77 75 61 61 62 66 68 70 68
16 17 19 20 16 14 20 18 17 24 25 26 27 28 28 31 35 35 38 37 37 38 39 43 46 51 52 57 60 63 66 69 68 70 74 75 62 58 60 63 66 69 68 62
20 20 25 22 22 23 20 23 25 28 28 29 30 33 34 33 34 36 37 39 40 41 43 47 50 50 56 59 61 64 67 69 68 71 71 59 55 58 61 62 65 66 62 57
20 20 20 21 21 21 24 24 25 27 32 34 34 34 34 35 34 33 34 37 41 42 43 44 49 54 57 58 62 66 68 69 70 63 54 55 55 58 58 61 65 61 55 55
18 15 18 21 26 28 28 28 30 32 32 33 37 38 38 39 39 37 36 37 42 43 46 50 53 55 56 60 63 69 70 69 59 55 56 55 54 57 57 61 59 53 54 56
16 15 19 19 24 28 30 33 34 36 36 36 41 42 38 39 40 42 44 43 42 44 46 47 50 51 58 59 57 58 54 47 50 55 55 54 55 54 57 58 51 51 54 56
18 20 20 23 26 28 29 33 36 39 40 38 39 42 43 41 43 46 43 41 39 42 45 46 51 51 53 56 59 52 48 47 52 53 52 51 55 55 57 51 48 51 54 57
25 28 30 31 32 33 32 34 36 38 41 41 39 41 43 50 49 49 43 40 43 42 45 50 54 54 55 54 52 52 45 49 51 50 48 51 52 55 54 47 48 50 54 57
18 18 18 21 24 28 31 34 37 39 42 44 45 49 50 47 39 36 39 40 43 47 48 50 52 50 53 49 48 42 47 51 52 47 48 50 52 55 48 45 47 50 53 57
9 11 11 13 13 15 17 20 21 24 30 27 29 30 30 31 34 37 41 44 40 38 44 46 45 50 46 49 45 40 47 51 48 47 47 48 50 50 42 44 46 48 53 56
11 12 12 13 13 15 17 15 13 15 18 20 21 23 27 29 31 33 35 39 43 40 44 47 46 44 49 44 38 41 44 49 45 46 47 47 48 41 39 42 43 47 52 55
15 15 15 13 14 15 17 16 18 18 20 22 24 28 32 33 34 35 37 38 38 37 42 43 41 43 40 35 38 44 48 48 45 47 45 44 43 36 38 39 42 46 50 53
15 16 15 15 14 15 17 19 21 22 23 24 29 33 36 36 36 34 34 36 33 38 37 34 43 41 39 39 44 48 47 43 44 46 42 41 34 32 35 36 40 44 47 51
17 17 16 17 16 15 18 19 20 26 27 30 32 36 39 39 36 36 38 38 37 36 35 40 41 38 42 43 45 48 43 41 45 42 39 37 31 31 33 35 39 42 46 49
17 18 17 18 19 18 18 20 22 25 26 30 36 40 40 37 36 31 33 30 41 40 41 40 37 37 36 42 46 44 42 42 40 36 37 33 28 29 31 33 37 40 44 47
17 18 18 20 20 20 19 22 23 25 28 32 36 38 40 43 42 39 34 33 36 32 36 36 34 36 40 43 42 41 41 40 35 34 34 28 26 27 28 31 34 39 43 46
17 18 18 20 20 20 20 23 25 26 29 32 36 36 35 35 35 33 34 35 37 40 33 35 39 43 40 42 42 40 39 38 32 33 30 27 26 26 27 29 32 37 41 44
18 20 20 21 21 22 24 25 26 28 30 35 37 36 33 32 34 31 31 34 34 37 41 42 39 41 41 43 40 38 36 32 31 30 27 26 24 24 25 26 30 35 39 41
20 21 21 21 23 26 27 28 29 30 32 35 35 33 31 29 34 35 36 37 38 39 37 38 39 39 38 39 37 36 32 29 29 27 28 25 23 23 23 24 26 31 34 38
24 22 21 23 24 25 26 28 28 29 32 34 32 30 30 33 34 36 36 35 37 36 36 37 38 37 35 35 36 34 30 29 26 25 25 24 22 22 22 23 24 26 30 35
Wind_Direction
237 240 242 248 255 261 263 266 265 267 274 278 292 294 306 307 314 314 309 312 321 318 318 321 324 321 320 318 318 321 322 322 318 315 315 316 317 318 319 318 318 321 320 319
240 245 250 253 256 258 262 265 266 270 276 287 290 297 299 305 311 302 309 317 319 317 318 321 322 317 317 315 313 318 321 322 317 315 316 317 316 316 317 317 320 322 322 321
237 238 240 249 255 261 263 266 270 275 286 288 289 290 299 310 308 310 313 312 313 319 318 320 320 313 313 313 311 315 319 320 317 315 316 315 316 317 317 321 322 323 322 323
234 236 237 247 254 259 264 272 289 290 289 288 286 291 302 306 297 303 305 306 311 319 315 317 314 312 312 310 312 314 320 318 315 315 315 317 318 319 319 322 321 321 324 325
237 234 242 248 258 266 280 280 277 280 280 282 289 294 298 288 293 295 300 306 312 312 312 312 308 310 308 308 313 317 319 316 315 316 319 319 320 317 322 322 322 324 326 327
236 241 249 255 257 265 260 261 264 270 275 281 298 279 294 294 291 292 299 303 304 304 306 303 305 304 305 311 316 318 316 317 318 319 318 318 318 317 326 321 324 326 327 329
223 230 228 236 241 247 254 260 265 269 276 285 284 283 290 290 292 291 290 290 295 303 301 305 304 307 312 315 317 316 316 320 320 319 317 316 316 323 322 324 325 326 329 331
227 222 233 237 238 245 256 271 282 281 285 284 286 286 289 290 294 295 296 294 300 300 306 307 310 311 313 314 313 315 317 319 320 318 319 317 320 324 324 327 327 327 332 332
220 220 236 243 246 257 265 269 275 291 292 289 290 291 293 296 296 298 296 295 299 302 304 305 305 308 310 310 312 316 315 317 318 320 317 318 324 325 327 327 327 331 333 332
239 244 256 261 260 262 265 286 289 289 289 290 294 295 298 299 300 297 296 298 301 303 305 303 303 309 309 311 315 314 316 317 319 316 319 323 325 327 327 327 331 333 333 335
248 249 256 261 262 267 271 272 277 277 280 284 296 299 298 298 301 301 302 304 306 306 304 305 308 309 309 312 315 315 315 318 317 321 325 324 326 327 327 329 334 334 335 339
242 245 250 251 261 270 275 277 281 287 289 295 296 296 294 298 298 301 309 310 306 307 308 305 304 308 314 319 325 326 322 320 326 328 326 325 325 327 329 334 335 335 339 341
255 255 258 262 260 263 269 275 279 283 287 287 291 296 301 298 300 307 307 306 306 302 301 310 317 321 318 315 319 325 322 323 329 326 326 327 327 329 333 336 336 338 341 342
264 263 261 261 261 264 267 271 274 280 284 289 287 291 294 299 298 301 303 302 300 304 315 312 312 316 316 319 320 320 324 329 329 327 329 329 328 332 335 337 338 342 344 342
263 269 270 269 267 268 270 270 271 274 280 282 286 286 288 294 298 299 299 300 306 310 309 310 313 314 320 318 319 317 328 329 329 330 331 330 335 335 336 337 341 345 344 344
275 286 294 288 292 286 278 279 287 287 286 297 299 303 310 307 301 296 296 299 303 305 311 312 313 314 318 317 312 323 329 330 329 331 332 331 335 335 335 339 344 347 346 347
278 290 299 302 299 294 301 318 313 308 315 322 326 327 323 315 306 298 296 297 299 298 303 306 307 315 316 309 316 326 328 330 327 331 330 331 335 334 338 342 347 349 350 349
288 291 293 294 291 299 310 307 314 321 329 330 332 332 330 323 314 305 303 300 299 301 309 310 316 314 306 314 328 331 331 330 328 328 327 335 334 335 341 345 349 352 353 353
290 292 296 297 304 313 316 323 326 330 335 331 335 334 330 329 324 322 318 309 298 305 309 311 310 305 302 316 323 327 328 329 327 325 330 335 334 338 342 348 352 354 356 357
292 292 293 298 305 315 320 327 328 328 330 332 331 331 331 332 330 327 323 317 311 314 313 308 297 297 306 313 319 324 329 329 328 328 334 334 335 342 344 350 353 356 358 1
290 291 295 299 307 312 320 320 326 325 326 328 330 332 332 330 328 321 322 320 318 314 309 307 300 304 313 320 323 329 329 327 327 333 334 334 335 342 345 351 354 358 1 3
292 294 297 301 308 317 322 317 320 320 323 328 331 331 329 327 327 325 317 323 316 302 304 307 307 313 319 324 327 329 328 325 328 333 334 331 336 342 346 351 355 359 4 6
291 291 295 299 306 311 310 311 313 318 324 325 328 327 325 325 328 322 324 323 314 316 310 312 315 320 326 328 328 328 328 324 331 333 334 334 337 342 346 348 355 0 5 7
284 289 296 304 309 309 310 313 314 319 322 328 330 329 330 332 334 330 322 323 318 313 317 322 326 324 327 326 327 327 324 325 328 331 333 332 339 343 344 347 353 1 7 8
280 289 301 309 310 309 312 315 314 318 320 325 328 329 329 328 327 328 327 325 328 323 322 326 325 325 327 326 326 324 324 324 326 331 332 332 341 342 343 346 351 359 8 11
279 294 298 301 300 303 306 306 308 312 318 325 327 328 328 332 331 330 328 324 326 327 330 331 329 328 327 327 326 322 322 323 321 328 331 333 342 342 343 348 348 356 7 12
Height
5858 5862 5865 5867 5867 5869 5869 5869 5869 5868 5865 5863 5863 5862 5861 5859 5858 5854 5850 5847 5846 5843 5836 5832 5828 5821 5814 5808 5802 5793 5787 5782 5773 5763 5754 5745 5735 5726 5717 5707 5696 5684 5671 5659
5854 5859 5862 5860 5861 5863 5863 5863 5863 5861 5860 5860 5858 5858 5855 5853 5852 5848 5844 5841 5839 5834 5830 5826 5821 5815 5808 5802 5795 5786 5779 5773 5763 5754 5745 5735 5726 5715 5704 5693 5682 5672 5660 5650
5848 5855 5852 5853 5856 5857 5857 5857 5856 5857 5857 5856 5852 5851 5850 5845 5840 5836 5836 5834 5832 5827 5823 5818 5813 5808 5802 5796 5787 5778 5770 5762 5753 5744 5735 5726 5716 5705 5693 5680 5669 5659 5649 5637
5842 5845 5846 5848 5850 5851 5851 5851 5852 5851 5849 5849 5845 5843 5847 5842 5836 5833 5831 5828 5824 5819 5816 5811 5806 5800 5795 5788 5780 5770 5761 5753 5744 5736 5726 5717 5705 5694 5681 5670 5660 5650 5637 5624
5837 5840 5840 5841 5844 5845 5848 5847 5846 5845 5843 5841 5841 5836 5837 5834 5833 5829 5826 5821 5817 5813 5809 5803 5799 5794 5788 5780 5771 5762 5754 5745 5736 5727 5719 5709 5696 5684 5671 5661 5651 5639 5628 5612
5833 5834 5836 5837 5838 5840 5839 5839 5838 5837 5836 5836 5838 5831 5832 5830 5827 5824 5819 5814 5811 5807 5802 5797 5793 5787 5779 5771 5763 5755 5746 5738 5729 5720 5709 5699 5688 5674 5662 5653 5642 5629 5615 5600
5826 5826 5828 5830 5832 5833 5833 5832 5831 5830 5830 5830 5828 5824 5823 5821 5818 5814 5810 5807 5804 5799 5796 5791 5785 5777 5770 5763 5756 5747 5739 5731 5722 5711 5700 5688 5677 5665 5655 5644 5632 5619 5603 5588
5821 5824 5823 5825 5827 5828 5826 5827 5826 5823 5823 5825 5822 5818 5816 5813 5810 5807 5803 5799 5796 5792 5787 5781 5775 5769 5763 5756 5749 5740 5731 5722 5713 5702 5691 5679 5668 5657 5647 5635 5624 5610 5593 5579
5816 5819 5819 5822 5823 5824 5823 5822 5821 5819 5817 5815 5813 5811 5810 5807 5805 5800 5795 5792 5788 5785 5780 5775 5769 5763 5757 5749 5742 5733 5722 5713 5703 5693 5682 5671 5659 5650 5638 5627 5613 5598 5584 5572
5815 5816 5817 5818 5818 5818 5817 5819 5816 5814 5809 5807 5807 5804 5802 5799 5797 5794 5790 5786 5783 5778 5773 5767 5762 5757 5749 5742 5734 5723 5713 5703 5693 5682 5672 5662 5651 5641 5630 5618 5604 5590 5577 5565
5811 5814 5814 5815 5814 5813 5814 5812 5809 5807 5806 5802 5800 5800 5795 5791 5789 5786 5783 5780 5776 5771 5766 5760 5755 5748 5740 5733 5724 5713 5703 5695 5683 5674 5664 5653 5643 5634 5622 5609 5595 5583 5571 5558
5807 5808 5808 5811 5809 5807 5807 5805 5802 5800 5799 5798 5794 5792 5788 5785 5782 5780 5777 5773 5769 5764 5759 5752 5746 5737 5731 5724 5713 5705 5695 5686 5677 5667 5656 5647 5638 5626 5614 5600 5588 5578 5565 5551
5803 5804 5805 5806 5806 5803 5802 5799 5796 5794 5791 5789 5787 5783 5781 5778 5776 5773 5769 5765 5761 5755 5749 5744 5737 5729 5722 5714 5705 5696 5687 5678 5668 5658 5649 5639 5631 5620 5606 5593 5584 5573 5560 5547
5798 5797 5797 5799 5799 5797 5795 5792 5791 5790 5788 5785 5782 5778 5774 5770 5767 5764 5760 5755 5750 5746 5741 5735 5728 5721 5713 5705 5696 5688 5679 5671 5661 5651 5641 5633 5624 5613 5601 5590 5581 5568 5556 5545
5790 5789 5790 5790 5789 5788 5788 5787 5786 5783 5781 5778 5776 5772 5769 5766 5760 5756 5752 5747 5743 5738 5733 5726 5719 5713 5705 5697 5690 5681 5672 5664 5654 5645 5636 5628 5616 5607 5596 5586 5576 5564 5553 5540
5787 5786 5786 5785 5784 5783 5781 5780 5779 5777 5774 5773 5769 5766 5761 5757 5753 5749 5745 5741 5736 5731 5725 5718 5711 5704 5697 5690 5683 5675 5666 5657 5648 5638 5629 5620 5610 5601 5592 5582 5571 5561 5550 5537
5785 5784 5784 5782 5781 5779 5779 5778 5775 5773 5770 5767 5763 5759 5754 5750 5746 5742 5737 5733 5728 5722 5717 5709 5703 5696 5690 5683 5676 5668 5659 5650 5641 5631 5622 5614 5605 5596 5588 5579 5568 5558 5547 5535
5780 5780 5780 5780 5778 5776 5775 5773 5771 5769 5766 5762 5758 5754 5749 5744 5739 5734 5729 5725 5721 5715 5709 5702 5696 5689 5682 5676 5668 5659 5651 5642 5634 5626 5617 5608 5600 5593 5585 5576 5566 5555 5545 5533
5777 5776 5775 5775 5775 5773 5770 5768 5764 5761 5760 5755 5751 5747 5741 5735 5730 5725 5721 5717 5712 5707 5701 5695 5688 5681 5675 5668 5660 5652 5644 5635 5627 5620 5612 5604 5596 5589 5582 5573 5564 5554 5543 5531
5773 5773 5773 5771 5771 5770 5768 5764 5760 5757 5753 5749 5746 5741 5734 5728 5723 5718 5712 5706 5703 5698 5692 5686 5681 5673 5668 5661 5654 5645 5636 5629 5623 5616 5608 5601 5594 5587 5581 5572 5563 5554 5543 5531
5769 5768 5768 5767 5766 5766 5763 5760 5757 5754 5753 5745 5739 5733 5728 5723 5718 5714 5708 5702 5696 5690 5685 5679 5674 5667 5661 5654 5646 5639 5631 5625 5618 5611 5605 5598 5592 5585 5579 5570 5563 5553 5542 5530
5766 5764 5764 5762 5761 5761 5758 5755 5753 5750 5744 5739 5734 5728 5721 5714 5708 5704 5700 5695 5690 5684 5678 5673 5667 5661 5654 5647 5640 5633 5627 5621 5613 5607 5602 5595 5589 5583 5576 5570 5563 5553 5542 5530
5762 5761 5760 5759 5758 5756 5754 5751 5747 5743 5739 5735 5730 5724 5719 5712 5706 5700 5696 5691 5686 5680 5673 5667 5661 5655 5647 5642 5635 5628 5622 5617 5610 5604 5599 5593 5587 5582 5576 5570 5562 5553 5542 5531
5757 5755 5755 5755 5754 5751 5749 5746 5742 5738 5734 5728 5722 5716 5711 5707 5701 5695 5690 5685 5679 5674 5668 5661 5654 5648 5642 5637 5630 5624 5618 5613 5607 5601 5596 5591 5585 5580 5575 5569 5563 5554 5543 5533
5753 5752 5752 5750 5747 5744 5742 5739 5735 5732 5728 5723 5718 5713 5708 5703 5698 5692 5687 5680 5674 5669 5663 5656 5649 5643 5637 5631 5626 5620 5614 5609 5603 5598 5593 5589 5583 5578 5573 5568 5563 5555 5546 5536
5746 5748 5748 5746 5743 5741 5738 5734 5731 5727 5723 5718 5714 5709 5704 5699 5693 5688 5682 5676 5669 5663 5656 5650 5643 5637 5631 5626 5620 5615 5610 5606 5601 5596 5591 5586 5581 5577 5572 5567 5563 5556 5547 5539